Погода в Славском

Украина / Львовская область     48°50′55″N   23°26′50″E
темп.,
°C
ветер,
м/с
пор.,
м/с
влажн.,
%
обл.,
%
осадки,
мм/ч
давл.,
гПа
погр.,
м
4 марта, чт
чт423:00−1ю339741 0.0 102673
02:00+1ююз359759 0.0 1024204
05:00+1ююз3109887 0.0 1021373
08:000ююз389780 0.0 1020327
11:00+4ююз498459 0.0 1018645
14:00+5ююз597639 0.0 1015804
17:00+4ююз398619 0.0 1014645
20:00+2ююз389452 0.0 1014241
5 марта, пт
пт523:00+2зюз1299100 2.3 101458
02:00+2ю2299100 7.3 1013104
05:00+2ююз2299100 0.8 101294
08:00+2ююз31097100 1.2 1012793
11:00−1ссз2398100 2.8 1013203
14:000ссв2495100 6.1 1014425
17:00−2св3893100 3.5 1017693
20:00−4св3993100 4.6 1020688
6 марта, сб
сб623:00−7св3992100 0.1 1023622
02:00−9ссв289366 0.2 1026267
05:00−10ссв11900 0.0 102722
08:00−8ссв00838 0.0 102942
11:00−3ссз356419 0.1 10301445
14:00−3сз357259 0.3 10301079
17:00−4ссз2475100 0.3 1031941
20:00−7ссз119291 0.4 103221
7 марта, вс
вс723:00−9ю119313 0.0 103221
02:00−9ю12917 0.0 103225
05:00−9ю24900 0.0 1029105
08:00−7ююз39860 0.0 1028448
11:00−3юз610733 0.0 1026859
14:00−1ююз610704 0.0 1023929
17:00−2ююз510690 0.0 1021861
20:00−6ююз38850 0.0 1021229
8 марта, пн
пн823:00−6ююз37890 0.0 1021186
02:00−6ююз379415 0.0 1020197
05:00−7ю23950 0.0 101873
08:00−6ююз239234 0.0 1018146
11:00−1юз367385 0.0 1017889
14:000зюз456991 0.0 10161087
17:00−1з3474100 0.1 1016925
20:00−4сз119498 0.3 101923